Overview Statistics Trail Chart Weather Telemetry Raw packets
 

This is the latest recevied weather packets stored in our database for station/object NO9B. If no packets are shown the sender has not sent any weather packets the latest 10 day(s).

<< 41 42 43 44 45 46 47 >>
Time Temp. Humidity Pressure Rain* Wind** Luminosity Snow
1788382368 31.67° C 64% 1014 hPa 0 mm - 112 W/m² -
1788382063 32.22° C 63% 1013.9 hPa 0 mm - 89 W/m² -
1788381758 32.78° C 61% 1013.9 hPa 0 mm - 320 W/m² -
1788381458 33.33° C 60% 1014 hPa 0 mm - 105 W/m² -
1788381154 33.33° C 65% 1013.7 hPa 0 mm - 380 W/m² -
1788380853 32.22° C 68% 1013.8 hPa 0 mm - 431 W/m² -
1788380550 31.67° C 68% 1013.8 hPa 0 mm - 327 W/m² -
1788380246 31.67° C 68% 1013.8 hPa 0 mm - 89 W/m² -
1788379945 32.22° C 67% 1013.6 hPa 0 mm - 91 W/m² -
1788379640 32.22° C 69% 1013.8 hPa 0 mm - 244 W/m² -
1788379336 32.22° C 68% 1013.9 hPa 0 mm - 206 W/m² -
1788379032 31.67° C 67% 1013.9 hPa 0 mm - 239 W/m² -
1788378731 32.22° C 67% 1014 hPa 0 mm - 204 W/m² -
1788378430 32.22° C 68% 1014.1 hPa 0 mm - 136 W/m² -
1788378126 31.67° C 68% 1014 hPa 0 mm - 216 W/m² -
1788377821 31.67° C 68% 1014 hPa 0 mm - 328 W/m² -
1788377516 32.22° C 67% 1014 hPa 0 mm - 282 W/m² -
1788377215 31.67° C 67% 1013.9 hPa 0 mm - 353 W/m² -
1788376915 32.22° C 67% 1014.4 hPa 0 mm - 271 W/m² -
1788376614 32.22° C 67% 1014.5 hPa 0 mm - 130 W/m² -
1788376309 32.78° C 66% 1014.3 hPa 0 mm - 156 W/m² -
1788376004 32.78° C 66% 1014.4 hPa 0 mm - 467 W/m² -
1788375699 32.22° C 70% 1014.3 hPa 0 mm - 562 W/m² -
1788375395 32.22° C 69% 1014.4 hPa 0 mm - 368 W/m² -
1788375092 31.67° C 73% 1014.5 hPa 0 mm - 517 W/m² -

* Rain latest hour (hover to see other rain measurements)
** Current wind speed in m/s (hover to see current wind gust speed)